Location: Melbourne
(37.8666°S, 145.1333°E)
Time: 17:05:25
(UTC+11:00)

Daily predictions for brighter satellites

Satellite Brightness Start Highest point End
(mag) Time Altitude Azimuth Time Altitude Azimuth Time Altitude Azimuth
ATLAS 2AS CENTAUR R/B 3.1 20:31:00 10° SSW 20:37:00 46° SE 20:43:25 10° NE
SL-27 R/B 4.0 20:39:35 10° NE 20:42:03 18° E 20:44:35 10° SE
Sich 1 Rocket 4.4 20:37:34 10° NNW 20:42:04 60° W 20:46:41 10° S
YAOGAN 1 4.4 20:39:10 10° S 20:43:14 37° WSW 20:47:14 10° NW
Cosmos 1633 3.0 20:40:22 10° NNW 20:44:02 68° W 20:47:45 10° S
NOSS 2-3 (E) 4.4 20:39:01 10° SW 20:45:23 80° WNW 20:50:28 10° NNE
ALOS 2.5 20:42:01 10° S 20:46:47 79° WSW 20:51:28 10° NNW
BREEZE M DEB (TANK) 2.5 20:42:44 10° WSW 20:46:50 45° NW 20:48:57 10° NNE
Cosmos 468 Rocket 4.1 20:44:07 10° NNW 20:49:16 83° WSW 20:54:31 10° SSE
ERS-2 4.2 20:46:58 10° S 20:50:23 34° WSW 20:53:47 10° NW
Meteor 1-11 Rocket 4.1 20:45:42 10° NNE 20:50:55 41° E 20:56:08 10° SSE
Meteor 1-29 4.3 20:50:10 10° NE 20:52:55 23° ESE 20:55:42 10° SSE
Cosmos 304 Rocket 3.8 20:55:10 10° N 20:59:55 66° ENE 21:04:44 10° SSE
Meteor 1-13 Rocket 4.5 20:57:03 10° S 21:02:49 56° ESE 21:08:23 10° NNE
Okean 1 3.8 20:59:49 10° SSW 21:03:56 65° W 21:07:59 10° N
Cosmos 2298 Rocket 4.1 20:58:38 10° SSW 21:04:00 66° ESE 21:09:18 10° NNE
Cosmos 1943 Rocket 4.4 21:00:26 10° SW 21:04:42 23° W 21:08:58 10° NNW
Tiangong 2 3.1 21:03:17 10° NNE 21:04:37 12° NE 21:04:37 12° NE
Meteor 2-20 4.4 20:59:06 10° N 21:05:10 78° E 21:11:21 10° S
FengYun 1-2 T 4.2 21:00:14 10° SSE 21:05:48 68° ENE 21:11:16 10° N
ARGOS Delta rocket 4.2 21:01:23 10° NNE 21:05:53 48° ESE 21:10:42 10° S
Cosmos 1602 3.9 21:02:56 10° N 21:06:52 83° W 21:10:53 10° S
Hubble Space Telescope 2.9 21:05:32 10° NW 21:07:48 14° NNW 21:10:03 10° NNE
Cosmos 1833 Rocket 4.0 21:05:40 10° NE 21:09:24 19° E 21:13:17 10° ESE
Cosmos 1763 Rocket 3.5 21:06:57 10° NNW 21:12:02 89° W 21:17:11 10° SSE
Cosmos 1461 3.1 21:09:34 10° NNW 21:14:06 61° ENE 21:18:29 10° SE
Cosmos 1975 Rocket 4.0 21:12:10 10° SSW 21:16:24 48° W 21:20:34 10° NNW
MOS 1-B Rocket 3.9 21:11:36 10° SSE 21:17:13 61° ENE 21:23:05 10° N
Cosmos 1937 Rocket 3.6 21:11:59 10° SSW 21:17:24 89° WNW 21:22:44 10° NNE
Cosmos 1814 Rocket 4.4 21:14:21 10° NNW 21:19:37 68° WSW 21:24:55 10° SSE
FALCON 9 R/B 3.9 21:15:19 10° WNW 21:21:44 64° NNE 21:47:19 10° E
Spot 2 Rocket 4.3 21:20:33 10° SE 21:25:06 31° E 21:28:22 16° NNE
HJ-1C 3.8 21:22:16 10° S 21:25:45 68° WSW 21:29:11 10° NNW
Meteor 2-4 Rocket 3.8 21:23:59 10° S 21:29:59 74° E 21:35:21 13° NNE
Cosmos 2026 Rocket 4.5 21:24:29 12° NNE 21:30:06 43° E 21:36:03 10° SSE
PSLV R/B 3.4 21:29:38 10° WSW 21:32:46 59° SSE 21:34:33 22° E
Resurs 01 Rocket 1.9 21:29:05 10° SSE 21:33:25 47° E 21:36:49 15° N
Cosmos 1437 Rocket 3.0 21:37:19 23° NNE 21:39:21 46° E 21:43:05 10° SSE
Cosmos 2151 Rocket 4.2 21:37:42 10° NNW 21:42:08 59° W 21:46:41 10° S
Shenzhou-11 Module 1.9 21:39:52 10° NW 21:42:55 64° NNE 21:44:16 29° E
USA 267 3.4 21:37:59 18° NNE 21:42:58 70° NW 21:49:35 10° SW
Cosmos 1536 Rocket 3.6 21:39:10 10° S 21:43:43 85° W 21:47:06 18° N
Cosmos 1025 Rocket 3.9 21:40:23 10° SSE 21:44:25 33° ESE 21:45:51 26° ENE
Cosmos 841 Rocket 4.1 21:40:14 10° NNW 21:45:23 59° WSW 21:50:33 10° S
Cosmos 540 Rocket 3.4 21:41:05 10° N 21:46:12 71° ENE 21:51:21 10° SSE
Cosmos 1939 Rocket 3.1 21:46:35 10° SSE 21:50:41 50° E 21:52:29 29° NNE
Cosmos 2082 Rocket 2.5 21:47:26 17° N 21:51:29 44° ENE 21:56:49 10° SE
Okean 1 Rocket 3.1 21:50:03 21° N 21:52:58 67° E 21:57:30 10° SSE
Cosmos 1656 4.3 21:49:49 10° S 21:55:14 42° ESE 21:57:47 27° ENE
CZ-2D R/B 4.2 21:51:34 10° S 21:55:26 51° WSW 21:59:14 10° NNW
Cosmos 1515 4.0 21:56:37 10° S 22:00:28 51° E 22:01:14 43° ENE
Resurs 1-3 3.6 21:57:55 10° S 22:02:23 83° WSW 22:05:55 16° NNW
Envisat 3.1 21:58:10 10° S 22:03:20 82° WSW 22:08:22 10° NNW
Helios 1B rocket 4.2 22:00:06 10° NNW 22:03:41 28° W 22:07:20 10° SW
USA 186 2.6 22:02:42 10° S 22:05:13 39° WSW 22:06:26 24° NW
Cosmos 1536 4.2 22:02:09 10° NNW 22:05:54 38° WSW 22:09:42 10° S
Abrixas rocket 2.0 22:02:55 10° WSW 22:06:14 76° NW 22:06:29 70° N
DMSP B5D2-2 4.1 22:04:04 28° NNE 22:07:00 89° WNW 22:12:22 10° SSW
Cosmos 1300 Rocket 4.5 22:04:41 10° NNW 22:08:57 48° W 22:13:20 10° S
COSMOS 2487 3.6 22:15:51 31° ESE 22:15:51 31° ESE 22:18:10 10° SSE
CZ-2C R/B 4.2 22:14:36 18° E 22:15:55 20° ESE 22:19:51 10° SSE
SJ 16-02 1.5 22:11:57 10° S 22:16:24 60° ESE 22:17:14 50° ENE
Cosmos 1428 Rocket 4.4 22:12:51 26° N 22:16:31 74° E 22:22:42 10° S
Cosmos 1125 Rocket 3.4 22:12:53 10° SSW 22:18:13 84° ESE 22:20:04 42° NNE
Cosmos 2344 4.5 22:09:03 10° SSW 22:22:03 69° SE 22:27:34 31° NE
Cosmos 1892 Rocket 4.4 22:18:22 10° SSE 22:22:23 33° ESE 22:22:23 33° ESE
Milstar 3 Cent rocket 3.4 22:16:21 10° WNW 22:22:42 28° NNW 22:23:31 27° N
Okean 2 3.4 22:20:50 10° S 22:25:06 85° W 22:25:55 58° N
ATLAS 2AS CENTAUR R/B 3.9 22:22:09 10° SW 22:27:39 31° WNW 22:31:47 17° NNW
ERS-1 Rocket 3.9 22:24:08 10° SE 22:28:08 31° E 22:28:08 31° E
YAOGAN 6 3.2 22:25:45 10° S 22:29:29 56° WSW 22:30:40 37° NW
ARGOS 4.0 22:25:55 10° SE 22:30:33 32° E 22:30:33 32° E
Cosmos 1697 Rocket 2.9 22:26:17 10° SSW 22:31:54 57° ESE 22:33:19 45° ENE
ATLAS 3B CENTAUR R/B 4.1 22:26:47 10° WNW 22:32:40 33° N 22:35:15 30° NNE
Meteor 1-4 Rocket 2.6 22:35:16 77° SSW 22:35:16 77° SSW 22:38:44 10° S
Cosmos 2369 3.8 22:33:13 10° SSW 22:38:54 70° WNW 22:40:36 45° N
Cosmos 1655 Rocket 4.3 22:39:55 23° NNW 22:44:06 68° W 22:50:35 10° S
NOSS 3-4 (A) 3.6 22:41:02 10° SSW 22:48:09 89° ESE 22:50:03 51° NNE
NOSS 3-4 (C) 3.6 22:41:08 10° SSW 22:48:14 88° SE 22:50:09 51° NE
Cosmos 2278 4.0 22:44:44 10° SSW 22:50:20 59° WNW 22:51:47 45° NNW
Cosmos 1833 Rocket 3.3 22:47:18 10° NW 22:52:49 54° WSW 22:58:25 10° SSE
Cosmos 1553 Rocket 4.0 22:47:03 10° S 22:53:12 75° W 22:55:11 45° NNW
Gbstr 26 Del rocket 4.5 22:47:05 10° SW 22:55:17 87° NW 22:58:02 47° NE
Okean 1-7 Rocket 4.4 22:52:24 10° SSW 22:56:50 46° W 22:57:35 42° WNW
Orbus 7S? 4.4 22:46:41 10° NNW 22:57:13 68° NE 23:01:36 10° SE
Cosmos 1980 Rocket 2.3 22:54:45 10° SSW 23:00:19 57° ESE 23:00:52 54° E
H-2A R/B 2.7 22:57:01 10° SSE 23:01:30 43° ESE 23:01:30 43° ESE
Cosmos 1975 3.6 23:02:02 48° W 23:02:11 48° W 23:06:12 10° S
SL-16 R/B 3.8 22:59:02 10° S 23:03:23 22° SE 23:04:27 21° ESE
MetOp-B 4.0 22:58:39 10° SSE 23:04:05 69° ENE 23:04:09 69° ENE
NOAA 11 4.3 23:00:04 10° S 23:05:33 70° WSW 23:07:03 47° NW
CZ-4B R/B 3.7 23:06:59 55° SE 23:06:59 55° SE 23:11:25 10° S
CZ-4 R/B 3.7 23:06:51 88° SE 23:06:51 88° SE 23:11:48 10° SSW
Resurs 01 Rocket 4.4 23:06:51 10° SSW 23:09:28 15° WSW 23:12:04 10° W
NOSS 2-2 (D) 4.4 23:03:37 10° SSW 23:10:39 61° SE 23:11:25 56° E
Cosmos 2266 Rocket 3.9 23:09:26 60° N 23:10:41 88° W 23:17:01 10° S
ATLAS 5 CENTAUR R/B 3.5 23:08:07 10° SW 23:10:06 25° WSW 23:10:06 25° WSW
SPOT 5 3.6 23:08:33 10° SSE 23:12:21 43° ESE 23:12:21 43° ESE
CZ-4C R/B 4.0 23:15:55 27° E 23:15:55 27° E 23:20:23 10° SE
deb Chang Zheng 4 4.2 23:16:48 52° SSE 23:16:48 52° SSE 23:20:18 10° S
Cosmos 1455 Rocket 3.5 23:16:48 61° SW 23:16:48 61° SW 23:20:47 10° S
Cosmos 773 Rocket 4.0 23:16:57 77° ESE 23:16:57 77° ESE 23:22:01 10° SSE
Cosmos 1544 Rocket 4.1 23:17:11 56° WSW 23:17:11 56° WSW 23:21:11 10° S
Cosmos 1743 3.9 23:18:39 42° SW 23:18:39 42° SW 23:21:43 10° S
Cosmos 883 Rocket 4.3 23:12:21 10° S 23:18:42 84° E 23:19:27 71° NNE
RESURS DK-1 4.4 23:17:20 10° S 23:19:53 21° SE 23:19:53 21° SE
Mayak 0.8 23:23:19 19° SE 23:23:19 19° SE 23:25:24 10° SSE
Cosmos 1271 Rocket 4.4 23:26:10 30° SSE 23:26:10 30° SSE 23:28:14 10° S
Cosmos 2322 Rocket 3.3 23:23:19 10° S 23:28:27 33° ESE 23:28:45 32° ESE
Nadezhda 2 Rocket 4.4 23:31:54 76° NE 23:32:15 79° E 23:38:46 10° S
NOSS 2-2 (C) 4.1 23:25:55 10° SSW 23:32:51 89° SE 23:32:51 89° SE
NOSS 2-2 (E) 4.1 23:26:35 10° SW 23:33:07 81° W 23:33:07 81° W
Cosmos 1340 Rocket 4.4 23:30:27 10° S 23:32:56 33° SSE 23:32:56 33° SSE
Cosmos 2082 Rocket 4.2 23:31:09 10° WNW 23:35:44 25° WSW 23:40:22 10° S
USA 245 4.4 23:40:48 10° S 23:44:57 55° WSW 23:44:57 55° WSW
Cosmos 2315 Rocket 3.9 23:39:42 10° S 23:46:10 81° W 23:46:30 78° NW
Cosmos 1680 Rocket 4.2 23:55:21 49° SE 23:55:21 49° SE 23:59:18 10° SSE
SJ 16-02 4.1 23:53:36 10° W 23:54:15 10° W 23:54:15 10° W
